FW6455 Weather Reports


Display with metric or nautical units.
time (UTC)temp
F
wind
direction
speed
MPH
gust
MPH
rain 1hr
in
rain 24hr
in
rain mn
in
humidity
%
barometer
mb
20260903191558 89 212 2.0 6.0 0.00 0.00 0.00 66 1014.3
20260903191038 88 153 1.0 6.0 0.00 0.00 0.00 68 1014.4
20260903190542 88 159 2.0 6.0 0.00 0.00 0.00 67 1014.5
20260903190100 88 181 3.0 6.0 0.00 0.00 0.00 67 1014.6
20260903185538 88 167 1.0 4.0 0.00 0.00 0.00 68 1014.6
20260903185040 88 189 2.0 5.0 0.00 0.00 0.00 68 1014.8
20260903184607 88 172 2.0 5.0 0.00 0.00 0.00 69 1014.8
20260903184038 87 204 2.0 5.0 0.00 0.00 0.00 70 1014.9
20260903183537 86 202 2.0 5.0 0.00 0.00 0.00 71 1015.0
20260903183101 86 150 2.0 5.0 0.00 0.00 0.00 71 1015.0
20260903182540 86 148 2.0 5.0 0.00 0.00 0.00 72 1015.1
20260903182039 86 149 3.0 5.0 0.00 0.00 0.00 71 1015.2
20260903181559 85 179 2.0 7.0 0.00 0.00 0.00 72 1015.2
20260903181039 85 200 2.0 7.0 0.00 0.00 0.00 73 1015.3
20260903180537 85 212 2.0 7.0 0.00 0.00 0.00 73 1015.4
20260903180108 84 156 2.0 6.0 0.00 0.00 0.00 74 1015.4
20260903175539 84 182 2.0 6.0 0.00 0.00 0.00 74 1015.6
20260903175037 84 146 2.0 8.0 0.00 0.00 0.00 74 1015.6
20260903174614 84 132 2.0 9.0 0.00 0.00 0.00 74 1015.5
20260903174042 84 173 3.0 9.0 0.00 0.00 0.00 74 1015.6
20260903173536 84 188 3.0 8.0 0.00 0.00 0.00 75 1015.7
20260903173119 84 124 2.0 8.0 0.00 0.00 0.00 75 1015.9
20260903172537 83 179 4.0 7.0 0.00 0.00 0.00 75 1015.9
20260903172043 83 191 2.0 7.0 0.00 0.00 0.00 75 1015.9
20260903171602 83 176 2.0 8.0 0.00 0.00 0.00 76 1016.1
20260903171036 83 148 2.0 8.0 0.00 0.00 0.00 76 1016.0
20260903170542 83 161 3.0 8.0 0.00 0.00 0.00 76 1015.9
20260903170110 83 186 1.0 7.0 0.00 0.00 0.00 76 1015.9
20260903165540 83 166 2.0 7.0 0.00 0.00 0.00 77 1015.9
20260903165042 83 161 3.0 7.0 0.00 0.00 0.00 77 1016.0
20260903164607 83 165 2.0 6.0 0.00 0.00 0.00 77 1016.1
20260903164037 84 195 3.0 6.0 0.00 0.00 0.00 77 1015.9
20260903163536 84 159 2.0 5.0 0.00 0.00 0.00 77 1015.9
20260903163108 84 190 2.0 4.0 0.00 0.00 0.00 77 1015.8
20260903162537 85 201 1.0 6.0 0.00 0.00 0.00 77 1015.8
20260903162037 84 183 1.0 6.0 0.00 0.00 0.00 78 1015.9
20260903161600 84 186 1.0 3.0 0.00 0.00 0.00 79 1016.0
20260903161039 83 189 1.0 3.0 0.00 0.00 0.00 79 1015.8
20260903160539 83 202 1.0 6.0 0.00 0.00 0.00 79 1015.9
20260903160059 83 169 2.0 6.0 0.00 0.00 0.00 80 1015.8
20260903155540 83 150 1.0 5.0 0.00 0.00 0.00 80 1015.8
20260903155039 83 143 1.0 3.0 0.00 0.00 0.00 80 1015.9
20260903154603 82 216 1.0 3.0 0.00 0.00 0.00 81 1015.9
20260903154039 82 173 1.0 3.0 0.00 0.00 0.00 81 1015.8
20260903153536 82 188 1.0 3.0 0.00 0.00 0.00 82 1015.7
20260903153102 82 167 1.0 3.0 0.00 0.00 0.00 82 1015.7
20260903152538 82 205 1.0 3.0 0.00 0.00 0.00 82 1015.7
20260903152037 82 192 1.0 3.0 0.00 0.00 0.00 82 1015.6
20260903151600 82 0 0.0 3.0 0.00 0.00 0.00 83 1015.7
20260903151036 82 195 0.0 3.0 0.00 0.00 0.00 83 1015.5
20260903150537 82 177 1.0 3.0 0.00 0.00 0.00 83 1015.5
20260903150113 82 153 0.0 2.0 0.00 0.00 0.00 84 1015.6
20260903145537 82 197 0.0 2.0 0.00 0.00 0.00 84 1015.5
20260903145040 81 203 0.0 2.0 0.00 0.00 0.00 84 1015.6
20260903144601 81 165 0.0 2.0 0.00 0.00 0.00 84 1015.6
20260903144037 81 0 0.0 2.0 0.00 0.00 0.00 85 1015.6
20260903143537 81 0 0.0 2.0 0.00 0.00 0.00 85 1015.6
20260903143102 81 0 0.0 2.0 0.00 0.00 0.00 85 1015.6
20260903142538 81 0 0.0 2.0 0.00 0.00 0.00 85 1015.6
20260903142038 80 0 0.0 4.0 0.00 0.00 0.00 85 1015.7
20260903141558 80 0 0.0 4.0 0.00 0.00 0.00 85 1015.8
20260903141037 80 0 0.0 4.0 0.00 0.00 0.00 85 1015.9
20260903140537 80 127 1.0 4.0 0.00 0.00 0.00 85 1015.6
20260903140059 80 124 0.0 3.0 0.00 0.00 0.00 85 1015.6
20260903135537 80 130 0.0 2.0 0.00 0.00 0.00 85 1015.6
20260903135037 80 0 0.0 2.0 0.00 0.00 0.00 86 1015.5
20260903134603 79 0 0.0 2.0 0.00 0.00 0.00 86 1015.6
20260903134038 79 0 0.0 2.0 0.00 0.00 0.00 87 1015.5
20260903133541 79 0 0.0 3.0 0.00 0.00 0.00 87 1015.3
20260903133102 79 181 0.0 4.0 0.00 0.00 0.00 87 1015.4
20260903132537 78 208 1.0 4.0 0.00 0.00 0.00 87 1015.4
20260903132037 78 146 0.0 2.0 0.00 0.00 0.00 87 1015.4
20260903131602 78 0 0.0 3.0 0.00 0.00 0.00 87 1015.4
20260903131040 78 86 0.0 3.0 0.00 0.00 0.00 87 1015.3
20260903130541 78 0 0.0 2.0 0.00 0.00 0.00 87 1015.2
20260903130115 78 110 0.0 2.0 0.00 0.00 0.00 87 1015.0
20260903125537 78 116 0.0 2.0 0.00 0.00 0.00 87 1015.0
20260903125037 78 0 0.0 1.0 0.00 0.00 0.00 87 1014.9
20260903124618 78 0 0.0 1.0 0.00 0.00 0.00 87 1014.9
20260903124036 78 139 0.0 1.0 0.00 0.00 0.00 87 1015.0
20260903123538 78 0 0.0 1.0 0.00 0.00 0.00 87 1015.0
20260903123059 78 0 0.0 1.0 0.00 0.00 0.00 87 1014.9
20260903122541 78 0 0.0 2.0 0.00 0.00 0.00 87 1014.8
20260903122036 78 0 0.0 2.0 0.00 0.00 0.00 87 1014.8
20260903121559 78 0 0.0 2.0 0.00 0.00 0.00 87 1014.6
20260903121039 78 0 0.0 2.0 0.00 0.00 0.00 87 1014.6
20260903120539 78 70 0.0 3.0 0.00 0.00 0.00 87 1014.7
20260903120107 78 124 0.0 3.0 0.00 0.00 0.00 87 1014.6
20260903115538 78 0 0.0 2.0 0.00 0.00 0.00 87 1014.6
20260903115036 78 0 0.0 2.0 0.00 0.00 0.00 86 1014.6
20260903114607 78 105 0.0 2.0 0.00 0.00 0.00 86 1014.5
20260903114038 78 99 0.0 2.0 0.00 0.00 0.00 86 1014.6
20260903113539 78 0 0.0 0.0 0.00 0.00 0.00 86 1014.7
20260903113108 78 0 0.0 0.0 0.00 0.00 0.00 85 1014.5
20260903112540 78 0 0.0 0.0 0.00 0.00 0.00 85 1014.4
20260903112037 78 0 0.0 0.0 0.00 0.00 0.00 85 1014.5
20260903111624 78 0 0.0 0.0 0.00 0.00 0.00 85 1014.6
20260903111036 78 0 0.0 0.0 0.00 0.00 0.00 85 1014.6
20260903110535 78 0 0.0 0.0 0.00 0.00 0.00 85 1014.7
20260903110112 78 0 0.0 0.0 0.00 0.00 0.00 85 1014.6
20260903105540 78 0 0.0 0.0 0.00 0.00 0.00 84 1014.5
20260903105041 78 0 0.0 2.0 0.00 0.00 0.00 84 1014.3
20260903104631 78 0 0.0 2.0 0.00 0.00 0.00 84 1014.3
20260903104038 78 121 0.0 1.0 0.00 0.00 0.00 84 1014.2
20260903103542 78 0 0.0 1.0 0.00 0.00 0.00 84 1014.1
20260903103100 78 182 0.0 2.0 0.00 0.00 0.00 84 1014.1
20260903102540 78 0 0.0 2.0 0.00 0.00 0.00 84 1014.1
20260903102039 78 151 0.0 0.0 0.00 0.00 0.00 83 1014.1
20260903101556 78 0 0.0 1.0 0.00 0.00 0.00 83 1014.1
20260903101041 78 0 0.0 1.0 0.00 0.00 0.00 83 1014.2
20260903100539 78 0 0.0 2.0 0.00 0.00 0.00 83 1014.2
20260903100103 78 0 0.0 2.0 0.00 0.00 0.00 83 1014.3
20260903095540 78 0 0.0 2.0 0.00 0.00 0.00 83 1014.4
20260903095055 78 102 0.0 1.0 0.00 0.00 0.00 83 1014.4
20260903094608 78 0 0.0 1.0 0.00 0.00 0.00 83 1014.4
20260903094039 78 0 0.0 1.0 0.00 0.00 0.00 83 1014.5
20260903093542 78 0 0.0 1.0 0.00 0.00 0.00 83 1014.5
20260903093100 78 0 0.0 0.0 0.00 0.00 0.00 83 1014.4
20260903092536 78 0 0.0 1.0 0.00 0.00 0.00 83 1014.3
20260903092039 78 0 0.0 1.0 0.00 0.00 0.00 83 1014.4
20260903091605 78 114 0.0 1.0 0.00 0.00 0.00 83 1014.4
20260903091039 78 122 0.0 0.0 0.00 0.00 0.00 83 1014.5
20260903090540 77 0 0.0 0.0 0.00 0.00 0.00 83 1014.3
20260903090104 77 0 0.0 0.0 0.00 0.00 0.00 82 1014.2
20260903085538 77 0 0.0 0.0 0.00 0.00 0.00 82 1014.2
20260903085042 78 0 0.0 0.0 0.00 0.00 0.00 82 1014.0
20260903084601 78 0 0.0 0.0 0.00 0.00 0.00 82 1014.0
20260903084041 78 0 0.0 0.0 0.00 0.00 0.00 82 1013.9
20260903083544 78 0 0.0 0.0 0.00 0.00 0.00 82 1014.0
20260903083057 78 0 0.0 0.0 0.00 0.00 0.00 81 1014.0
20260903082537 78 0 0.0 0.0 0.00 0.00 0.00 81 1014.0
20260903082039 78 0 0.0 0.0 0.00 0.00 0.00 81 1013.9
20260903081603 78 0 0.0 0.0 0.00 0.00 0.00 81 1014.1
20260903081035 79 0 0.0 0.0 0.00 0.00 0.00 80 1014.0
20260903080538 79 0 0.0 0.0 0.00 0.00 0.00 80 1014.1
20260903080059 79 0 0.0 0.0 0.00 0.00 0.00 80 1014.2
20260903075536 79 0 0.0 0.0 0.00 0.00 0.00 80 1014.0
20260903075036 79 0 0.0 0.0 0.00 0.00 0.00 80 1014.1
20260903074600 79 0 0.0 0.0 0.00 0.00 0.00 80 1014.1
20260903074039 79 0 0.0 0.0 0.00 0.00 0.00 80 1014.0
20260903073539 79 0 0.0 0.0 0.00 0.00 0.00 80 1014.1
20260903073111 79 0 0.0 0.0 0.00 0.00 0.00 80 1014.1
20260903072542 79 0 0.0 0.0 0.00 0.00 0.00 80 1014.3
20260903072039 79 0 0.0 0.0 0.00 0.00 0.00 80 1014.2
20260903071605 79 0 0.0 0.0 0.00 0.00 0.00 79 1014.2
20260903071038 79 0 0.0 0.0 0.00 0.00 0.00 80 1014.2
20260903070543 79 0 0.0 0.0 0.00 0.00 0.00 80 1014.2
20260903070104 79 0 0.0 0.0 0.00 0.00 0.00 80 1014.3
20260903065539 79 0 0.0 0.0 0.00 0.00 0.00 81 1014.2
20260903065035 79 0 0.0 0.0 0.00 0.00 0.00 81 1014.2
20260903064602 79 0 0.0 0.0 0.00 0.00 0.00 81 1014.1
20260903064039 79 0 0.0 0.0 0.00 0.00 0.00 81 1014.1
20260903063538 78 0 0.0 0.0 0.00 0.00 0.00 81 1014.1
20260903063100 78 0 0.0 0.0 0.00 0.00 0.00 81 1014.2
20260903062542 78 0 0.0 0.0 0.00 0.00 0.00 81 1014.2
20260903062039 78 0 0.0 0.0 0.00 0.00 0.00 81 1014.1
20260903061604 78 0 0.0 0.0 0.00 0.00 0.00 81 1014.1
20260903061038 78 0 0.0 0.0 0.00 0.00 0.00 80 1014.1
20260903060539 79 0 0.0 0.0 0.00 0.00 0.00 80 1014.1
20260903060107 79 0 0.0 1.0 0.00 0.00 0.00 80 1014.3
20260903055539 79 0 0.0 1.0 0.00 0.00 0.00 80 1014.4
20260903055038 79 0 0.0 1.0 0.00 0.00 0.00 79 1014.6
20260903054559 79 0 0.0 1.0 0.00 0.00 0.00 79 1014.6
20260903054038 79 0 0.0 0.0 0.00 0.00 0.00 79 1014.5
20260903053539 79 0 0.0 5.0 0.00 0.00 0.00 79 1014.6
20260903053110 79 0 0.0 6.0 0.00 0.00 0.00 79 1014.7
20260903052538 80 67 0.0 6.0 0.00 0.00 0.00 78 1014.6
20260903052036 80 79 1.0 6.0 0.00 0.00 0.00 78 1014.7
20260903051606 80 68 1.0 8.0 0.00 0.00 0.00 78 1014.8
20260903051039 80 54 3.0 8.0 0.00 0.00 0.00 77 1014.7
20260903050539 80 100 2.0 4.0 0.00 0.00 0.00 76 1014.7
20260903050107 80 58 0.0 4.0 0.00 0.00 0.00 75 1014.7
20260903045538 81 107 2.0 8.0 0.00 0.00 0.00 75 1014.7
20260903045036 81 105 1.0 8.0 0.00 0.00 0.00 74 1014.7
20260903044606 81 60 1.0 6.0 0.00 0.00 0.00 74 1014.7
20260903044038 81 82 3.0 10.0 0.00 0.00 0.00 73 1014.7
20260903043539 81 84 2.0 10.0 0.00 0.00 0.00 73 1014.6
20260903043107 82 99 3.0 7.0 0.00 0.00 0.00 72 1014.6
20260903042537 82 68 3.0 7.0 0.00 0.00 0.00 72 1014.6
20260903042038 82 76 1.0 10.0 0.00 0.00 0.00 72 1014.4
20260903041606 82 84 1.0 10.0 0.00 0.00 0.00 72 1014.4
20260903041037 82 66 2.0 5.0 0.00 0.00 0.00 72 1014.5
20260903040537 82 68 1.0 7.0 0.00 0.00 0.00 71 1014.5
20260903040109 82 54 2.0 7.0 0.00 0.00 0.00 71 1014.6
20260903035536 82 61 2.0 6.0 0.00 0.00 0.00 71 1014.6
20260903035036 82 106 2.0 6.0 0.00 0.00 0.00 71 1014.5
20260903034607 83 62 2.0 7.0 0.00 0.00 0.00 70 1014.4
20260903034036 83 63 2.0 7.0 0.00 0.00 0.00 70 1014.5
20260903033539 83 89 1.0 5.0 0.00 0.00 0.00 70 1014.5
20260903033057 83 115 2.0 7.0 0.00 0.00 0.00 70 1014.4
20260903032537 83 87 1.0 7.0 0.00 0.00 0.00 69 1014.4
20260903032037 83 107 2.0 7.0 0.00 0.00 0.00 69 1014.4
20260903031619 83 96 3.0 10.0 0.00 0.00 0.00 69 1014.5
20260903031037 84 109 2.0 10.0 0.00 0.00 0.00 68 1014.5
20260903030537 84 53 4.0 9.0 0.00 0.00 0.00 68 1014.5
20260903030116 84 131 2.0 7.0 0.00 0.00 0.00 67 1014.5
20260903025538 84 91 3.0 7.0 0.00 0.00 0.00 67 1014.4
20260903025037 84 39 3.0 7.0 0.00 0.00 0.00 67 1014.4
20260903024559 85 102 1.0 10.0 0.00 0.00 0.00 66 1014.4
20260903024038 85 127 3.0 10.0 0.00 0.00 0.00 66 1014.3
20260903023538 85 91 2.0 7.0 0.00 0.00 0.00 66 1014.4
20260903023106 86 97 1.0 5.0 0.00 0.00 0.00 66 1014.3
20260903022538 86 112 1.0 5.0 0.00 0.00 0.00 65 1014.2
20260903022038 86 96 2.0 5.0 0.00 0.00 0.00 64 1014.1
20260903021604 86 96 1.0 4.0 0.00 0.00 0.00 63 1014.2
20260903021039 87 98 1.0 8.0 0.00 0.00 0.00 63 1014.2
20260903020538 87 122 2.0 8.0 0.00 0.00 0.00 63 1014.2
20260903020059 87 127 2.0 8.0 0.00 0.00 0.00 62 1014.1
20260903015538 87 86 1.0 6.0 0.00 0.00 0.00 62 1014.1
20260903015040 87 79 1.0 6.0 0.00 0.00 0.00 62 1014.1
20260903014610 87 78 1.0 6.0 0.00 0.00 0.00 61 1014.1
20260903014038 88 119 1.0 5.0 0.00 0.00 0.00 61 1014.0
20260903013538 88 106 1.0 4.0 0.00 0.00 0.00 61 1014.0
20260903013059 88 120 1.0 4.0 0.00 0.00 0.00 60 1013.9
20260903012538 88 0 0.0 4.0 0.00 0.00 0.00 60 1013.7
20260903012042 89 141 0.0 1.0 0.00 0.00 0.00 59 1013.7
20260903011616 89 195 0.0 1.0 0.00 0.00 0.00 58 1013.7
20260903011039 89 0 0.0 2.0 0.00 0.00 0.00 58 1013.5
20260903010541 89 126 0.0 5.0 0.00 0.00 0.00 57 1013.4
20260903010117 90 117 0.0 5.0 0.00 0.00 0.00 56 1013.4
20260903005541 90 96 1.0 4.0 0.00 0.00 0.00 56 1013.3
20260903005038 90 114 1.0 3.0 0.00 0.00 0.00 55 1013.3
20260903004600 91 98 0.0 3.0 0.00 0.00 0.00 55 1013.3
20260903004039 91 0 1.0 7.0 0.00 0.00 0.00 54 1013.3
20260903003536 91 139 1.0 7.0 0.00 0.00 0.00 53 1013.4
20260903003054 91 199 0.0 4.0 0.00 0.00 0.00 53 1013.3
20260903002539 92 120 1.0 4.0 0.00 0.00 0.00 53 1013.3
20260903002040 92 188 1.0 5.0 0.00 0.00 0.00 52 1013.4
20260903001602 92 0 0.0 5.0 0.00 0.00 0.00 52 1013.3
20260903001039 93 179 1.0 4.0 0.00 0.00 0.00 51 1013.3
20260903000539 93 149 1.0 7.0 0.00 0.00 0.00 51 1013.2
20260903000058 94 129 3.0 10.0 0.00 0.00 0.00 49 1013.2
20260902235539 94 134 4.0 10.0 0.00 0.00 0.00 47 1013.1
20260902235040 94 108 1.0 10.0 0.00 0.00 0.00 46 1012.9
20260902234558 95 83 3.0 10.0 0.00 0.00 0.00 46 1012.9
20260902234039 95 119 3.0 10.0 0.00 0.00 0.00 45 1012.8
20260902233542 95 155 2.0 8.0 0.00 0.00 0.00 45 1012.9
20260902233100 95 85 4.0 9.0 0.00 0.00 0.00 45 1012.9
20260902232539 95 91 2.0 9.0 0.00 0.00 0.00 45 1012.8
20260902232041 96 83 2.0 10.0 0.00 0.00 0.00 45 1012.8
20260902231612 96 15 3.0 10.0 0.00 0.00 0.00 46 1012.8
20260902231039 97 134 5.0 10.0 0.00 0.00 0.00 45 1012.7
20260902230538 97 101 3.0 8.0 0.00 0.00 0.00 45 1012.7
20260902230059 97 81 3.0 10.0 0.00 0.00 0.00 44 1012.5
20260902225541 97 60 3.0 10.0 0.00 0.00 0.00 45 1012.5
20260902225041 97 116 4.0 9.0 0.00 0.00 0.00 44 1012.5
20260902224605 97 98 2.0 10.0 0.00 0.00 0.00 46 1012.6
20260902224044 97 103 2.0 11.0 0.00 0.00 0.00 45 1012.5
20260902223540 98 64 4.0 11.0 0.00 0.00 0.00 45 1012.6
20260902223056 98 60 3.0 8.0 0.00 0.00 0.00 44 1012.5
20260902222541 98 22 3.0 8.0 0.00 0.00 0.00 43 1012.7
20260902222039 98 210 1.0 8.0 0.00 0.00 0.00 44 1012.6
20260902221623 97 117 4.0 8.0 0.00 0.00 0.00 42 1012.7
20260902221044 98 89 3.0 8.0 0.00 0.00 0.00 43 1012.7
20260902220542 97 99 1.0 7.0 0.00 0.00 0.00 45 1012.7
20260902215541 97 0 1.0 7.0 0.00 0.00 0.00 46 1012.9
20260902215040 98 65 3.0 7.0 0.00 0.00 0.00 45 1012.8
20260902214601 97 63 0.0 6.0 0.00 0.00 0.00 45 1012.9
20260902214040 97 100 2.0 7.0 0.00 0.00 0.00 45 1012.8
20260902213542 98 76 3.0 7.0 0.00 0.00 0.00 44 1013.0
20260902213105 98 91 2.0 6.0 0.00 0.00 0.00 44 1013.0
20260902212540 97 67 0.0 7.0 0.00 0.00 0.00 46 1013.1
20260902212041 97 0 2.0 7.0 0.00 0.00 0.00 45 1013.2
20260902211602 98 343 4.0 7.0 0.00 0.00 0.00 44 1013.3
20260902211040 97 93 2.0 7.0 0.00 0.00 0.00 45 1013.2
20260902210541 97 93 2.0 7.0 0.00 0.00 0.00 45 1013.2
20260902210106 98 347 3.0 8.0 0.00 0.00 0.00 45 1013.1
20260902205540 98 99 3.0 8.0 0.00 0.00 0.00 45 1013.2
20260902205040 98 113 2.0 8.0 0.00 0.00 0.00 45 1013.1
20260902204607 98 0 2.0 9.0 0.00 0.00 0.00 43 1013.3
20260902204041 98 77 3.0 9.0 0.00 0.00 0.00 44 1013.4
20260902203540 98 68 2.0 9.0 0.00 0.00 0.00 44 1013.6
20260902203107 98 35 2.0 9.0 0.00 0.00 0.00 43 1013.7
20260902202538 97 124 1.0 9.0 0.00 0.00 0.00 44 1013.7
20260902202040 97 78 2.0 11.0 0.00 0.00 0.00 44 1013.7
20260902201609 97 60 5.0 11.0 0.00 0.00 0.00 45 1013.7
20260902201037 97 0 2.0 5.0 0.00 0.00 0.00 45 1013.8
20260902200539 97 74 0.0 6.0 0.00 0.00 0.00 46 1013.8
20260902200057 98 59 2.0 6.0 0.00 0.00 0.00 45 1014.1
20260902195541 97 94 2.0 8.0 0.00 0.00 0.00 46 1014.2
20260902195041 97 95 2.0 8.0 0.00 0.00 0.00 46 1014.3
20260902194608 97 114 1.0 10.0 0.00 0.00 0.00 46 1014.3
20260902194040 97 87 2.0 10.0 0.00 0.00 0.00 46 1014.3
20260902193540 97 67 2.0 10.0 0.00 0.00 0.00 47 1014.5
20260902193108 97 105 2.0 5.0 0.00 0.00 0.00 47 1014.6
20260902192539 96 128 1.0 5.0 0.00 0.00 0.00 47 1014.6
20260902192040 97 97 1.0 4.0 0.00 0.00 0.00 47 1014.7